Location: Pitton
(51.0667°N, 1.7000°W)
Time: 04:36:07
(UTC+00:00)

SAR-Lupe-2 - Pass Details

Date: 17 September 2019
Orbit: 481 x 485 km, 98.2° (Epoch: 07 October)

Event Time Altitude Azimuth Distance (km) Brightness Sun altitude
Rises 19:35:08 0° 14° (NNE) 2,566 7.3 -12.8°
Reaches altitude 10° 19:37:13 10° 14° (NNE) 1,679 6.4 -13.1°
Maximum altitude 19:40:49 86° 285° (WNW) 493 3.6 -13.6°
Drops below altitude 10° 19:44:24 10° 197° (SSW) 1,662 6.2 -14.1°
Sets 19:46:27 0° 197° (SSW) 2,540 7.2 -14.4°
